| time (UTC) | temp C | wind direction | speed KPH | gust KPH | rain 1hr cm | rain 24hr cm | rain mn cm | humidity % | barometer mb |
| 20260507093037 | 13 | 74 | 8.0 | 17.7 | 0.00 | 0.00 | 0.00 | 58 | 1016.2 |
| 20260507091538 | 13 | 31 | 9.7 | 24.1 | 0.00 | 0.00 | 0.00 | 58 | 1016.2 |
| 20260507090037 | 13 | 11 | 4.8 | 20.9 | 0.00 | 0.00 | 0.00 | 60 | 1016.2 |
| 20260507084540 | 12 | 30 | 4.8 | 16.1 | 0.00 | 0.00 | 0.00 | 61 | 1016.2 |
| 20260507083038 | 12 | 69 | 3.2 | 16.1 | 0.00 | 0.00 | 0.00 | 67 | 1016.0 |
| 20260507081539 | 11 | 10 | 3.2 | 16.1 | 0.00 | 0.00 | 0.00 | 71 | 1016.1 |
| 20260507080041 | 11 | 55 | 1.6 | 12.9 | 0.00 | 0.00 | 0.00 | 70 | 1016.0 |
| 20260507074542 | 10 | 37 | 9.7 | 20.9 | 0.00 | 0.00 | 0.00 | 72 | 1016.0 |
| 20260507073043 | 10 | 20 | 8.0 | 19.3 | 0.00 | 0.00 | 0.00 | 75 | 1015.7 |
| 20260507071539 | 9 | 21 | 1.6 | 17.7 | 0.00 | 0.00 | 0.00 | 79 | 1015.8 |
| 20260507070045 | 9 | 17 | 8.0 | 17.7 | 0.00 | 0.00 | 0.00 | 79 | 1015.7 |
| 20260507064545 | 8 | 31 | 4.8 | 16.1 | 0.00 | 0.00 | 0.00 | 81 | 1015.6 |
| 20260507063037 | 8 | 324 | 1.6 | 9.7 | 0.00 | 0.00 | 0.00 | 82 | 1015.5 |
| 20260507061538 | 8 | 355 | 4.8 | 14.5 | 0.00 | 0.00 | 0.00 | 82 | 1015.4 |
| 20260507060039 | 8 | 355 | 6.4 | 17.7 | 0.00 | 0.00 | 0.00 | 83 | 1015.2 |
| 20260507054538 | 7 | 55 | 4.8 | 16.1 | 0.00 | 0.00 | 0.00 | 84 | 1015.0 |
| 20260507053037 | 7 | 38 | 4.8 | 12.9 | 0.00 | 0.00 | 0.00 | 85 | 1015.0 |
| 20260507051537 | 7 | 355 | 3.2 | 9.7 | 0.00 | 0.00 | 0.00 | 86 | 1015.0 |
| 20260507050041 | 6 | 355 | 3.2 | 8.0 | 0.00 | 0.00 | 0.00 | 87 | 1014.7 |
| 20260507044555 | 6 | 355 | 3.2 | 9.7 | 0.00 | 0.00 | 0.00 | 87 | 1014.5 |
| 20260507043041 | 6 | 355 | 3.2 | 12.9 | 0.00 | 0.00 | 0.00 | 87 | 1014.5 |
| 20260507041545 | 6 | 355 | 3.2 | 12.9 | 0.00 | 0.00 | 0.00 | 87 | 1014.3 |
| 20260507040043 | 6 | 355 | 3.2 | 8.0 | 0.00 | 0.00 | 0.00 | 87 | 1014.2 |
| 20260507034542 | 7 | 355 | 1.6 | 6.4 | 0.00 | 0.00 | 0.00 | 86 | 1014.0 |
| 20260507033050 | 7 | 355 | 3.2 | 9.7 | 0.00 | 0.00 | 0.00 | 85 | 1013.9 |
| 20260507031553 | 7 | 355 | 4.8 | 9.7 | 0.00 | 0.00 | 0.00 | 85 | 1013.7 |
| 20260507030100 | 7 | 355 | 3.2 | 9.7 | 0.00 | 0.00 | 0.00 | 84 | 1013.8 |
| 20260507024559 | 8 | 355 | 3.2 | 14.5 | 0.00 | 0.00 | 0.00 | 84 | 1013.6 |
| 20260507023037 | 8 | 355 | 3.2 | 14.5 | 0.00 | 0.00 | 0.00 | 84 | 1013.5 |
| 20260507021551 | 8 | 355 | 3.2 | 12.9 | 0.00 | 0.00 | 0.00 | 84 | 1013.2 |
| 20260507020053 | 8 | 355 | 3.2 | 16.1 | 0.00 | 0.00 | 0.00 | 84 | 1013.2 |
| 20260507014549 | 8 | 355 | 4.8 | 17.7 | 0.00 | 0.00 | 0.00 | 83 | 1013.1 |
| 20260507013041 | 8 | 355 | 6.4 | 16.1 | 0.00 | 0.00 | 0.00 | 83 | 1013.0 |
| 20260507011544 | 8 | 355 | 4.8 | 14.5 | 0.00 | 0.00 | 0.00 | 84 | 1013.0 |
| 20260507010043 | 8 | 355 | 4.8 | 12.9 | 0.00 | 0.00 | 0.00 | 84 | 1012.8 |
| 20260507004536 | 8 | 355 | 3.2 | 17.7 | 0.00 | 0.00 | 0.00 | 84 | 1012.8 |
| 20260507003034 | 8 | 355 | 4.8 | 9.7 | 0.00 | 0.00 | 0.00 | 84 | 1012.7 |
| 20260507001539 | 8 | 355 | 4.8 | 20.9 | 0.00 | 0.00 | 0.00 | 84 | 1012.7 |
| 20260507000039 | 8 | 355 | 4.8 | 14.5 | 0.00 | 0.00 | 0.00 | 84 | 1012.6 |
| 20260506234551 | 8 | 355 | 4.8 | 16.1 | 0.00 | 0.00 | 0.00 | 84 | 1012.8 |
| 20260506233046 | 9 | 355 | 4.8 | 16.1 | 0.00 | 0.00 | 0.00 | 83 | 1012.6 |
| 20260506231536 | 9 | 355 | 6.4 | 17.7 | 0.00 | 0.00 | 0.00 | 84 | 1012.5 |
| 20260506230035 | 9 | 355 | 3.2 | 12.9 | 0.00 | 0.00 | 0.00 | 84 | 1012.5 |
| 20260506224542 | 9 | 355 | 4.8 | 12.9 | 0.00 | 0.00 | 0.00 | 84 | 1012.4 |
| 20260506223038 | 9 | 355 | 3.2 | 12.9 | 0.00 | 0.00 | 0.00 | 84 | 1012.3 |
| 20260506221539 | 9 | 355 | 4.8 | 12.9 | 0.00 | 0.00 | 0.00 | 84 | 1012.3 |
| 20260506220037 | 9 | 355 | 6.4 | 14.5 | 0.00 | 0.00 | 0.00 | 83 | 1012.3 |
| 20260506214537 | 9 | 355 | 3.2 | 12.9 | 0.00 | 0.00 | 0.00 | 82 | 1012.1 |
| 20260506213039 | 9 | 355 | 3.2 | 9.7 | 0.00 | 0.00 | 0.00 | 82 | 1012.1 |
| 20260506211539 | 10 | 355 | 3.2 | 12.9 | 0.00 | 0.00 | 0.00 | 81 | 1011.9 |
| 20260506210038 | 10 | 355 | 3.2 | 14.5 | 0.00 | 0.00 | 0.00 | 80 | 1012.0 |
| 20260506204540 | 10 | 355 | 4.8 | 16.1 | 0.00 | 0.00 | 0.00 | 79 | 1011.9 |
| 20260506203041 | 10 | 355 | 4.8 | 12.9 | 0.00 | 0.00 | 0.00 | 78 | 1011.8 |
| 20260506201546 | 10 | 355 | 3.2 | 14.5 | 0.00 | 0.00 | 0.00 | 78 | 1011.7 |
| 20260506200040 | 10 | 355 | 6.4 | 16.1 | 0.00 | 0.00 | 0.00 | 76 | 1011.6 |
| 20260506194536 | 10 | 355 | 3.2 | 17.7 | 0.00 | 0.00 | 0.00 | 73 | 1011.6 |
| 20260506193042 | 10 | 355 | 4.8 | 17.7 | 0.00 | 0.00 | 0.00 | 70 | 1011.5 |
| 20260506191539 | 10 | 355 | 3.2 | 8.0 | 0.00 | 0.00 | 0.00 | 69 | 1011.3 |
| 20260506190041 | 11 | 355 | 3.2 | 9.7 | 0.00 | 0.00 | 0.00 | 68 | 1011.0 |
| 20260506184545 | 11 | 355 | 3.2 | 9.7 | 0.00 | 0.00 | 0.00 | 68 | 1010.8 |
| 20260506183038 | 11 | 0 | 4.8 | 12.9 | 0.00 | 0.00 | 0.00 | 66 | 1010.7 |
| 20260506181538 | 11 | 355 | 3.2 | 12.9 | 0.00 | 0.00 | 0.00 | 66 | 1010.4 |
| 20260506180038 | 11 | 355 | 4.8 | 9.7 | 0.00 | 0.00 | 0.00 | 68 | 1010.4 |
| 20260506174537 | 11 | 355 | 1.6 | 8.0 | 0.00 | 0.00 | 0.00 | 70 | 1010.3 |
| 20260506173055 | 12 | 355 | 1.6 | 8.0 | 0.00 | 0.00 | 0.00 | 70 | 1010.2 |
| 20260506171537 | 12 | 355 | 1.6 | 6.4 | 0.00 | 0.00 | 0.00 | 70 | 1010.2 |
| 20260506170042 | 12 | 355 | 3.2 | 9.7 | 0.00 | 0.00 | 0.00 | 69 | 1010.0 |
| 20260506164544 | 12 | 355 | 0.0 | 9.7 | 0.00 | 0.00 | 0.00 | 68 | 1009.9 |
| 20260506163040 | 12 | 355 | 3.2 | 9.7 | 0.00 | 0.00 | 0.00 | 66 | 1009.9 |
| 20260506161538 | 12 | 355 | 3.2 | 14.5 | 0.00 | 0.00 | 0.00 | 67 | 1009.9 |
| 20260506160038 | 13 | 355 | 3.2 | 14.5 | 0.00 | 0.00 | 0.00 | 64 | 1010.0 |
| 20260506154537 | 13 | 355 | 4.8 | 14.5 | 0.00 | 0.00 | 0.00 | 63 | 1010.0 |
| 20260506153045 | 13 | 355 | 4.8 | 14.5 | 0.00 | 0.00 | 0.00 | 62 | 1010.0 |
| 20260506151539 | 13 | 355 | 4.8 | 12.9 | 0.00 | 0.00 | 0.00 | 62 | 1010.0 |
| 20260506150042 | 13 | 42 | 4.8 | 16.1 | 0.00 | 0.00 | 0.00 | 61 | 1009.9 |
| 20260506144542 | 13 | 355 | 1.6 | 17.7 | 0.00 | 0.00 | 0.00 | 61 | 1009.9 |
| 20260506143040 | 13 | 129 | 3.2 | 14.5 | 0.00 | 0.00 | 0.00 | 59 | 1010.0 |
| 20260506141538 | 13 | 33 | 3.2 | 14.5 | 0.00 | 0.00 | 0.00 | 59 | 1010.1 |
| 20260506140041 | 13 | 41 | 4.8 | 20.9 | 0.00 | 0.00 | 0.00 | 55 | 1009.9 |
| 20260506134539 | 13 | 39 | 3.2 | 17.7 | 0.00 | 0.00 | 0.00 | 53 | 1010.0 |
| 20260506133039 | 13 | 31 | 4.8 | 19.3 | 0.00 | 0.00 | 0.00 | 52 | 1009.9 |
| 20260506131548 | 13 | 16 | 6.4 | 16.1 | 0.00 | 0.00 | 0.00 | 49 | 1009.8 |
| 20260506130053 | 13 | 20 | 4.8 | 17.7 | 0.00 | 0.00 | 0.00 | 49 | 1009.8 |
| 20260506124545 | 14 | 25 | 4.8 | 25.7 | 0.00 | 0.00 | 0.00 | 47 | 1009.7 |
| 20260506123043 | 14 | 5 | 6.4 | 20.9 | 0.00 | 0.00 | 0.00 | 47 | 1009.6 |
| 20260506121539 | 15 | 68 | 4.8 | 14.5 | 0.00 | 0.00 | 0.00 | 46 | 1009.5 |
| 20260506120040 | 15 | 29 | 9.7 | 20.9 | 0.00 | 0.00 | 0.00 | 45 | 1009.4 |
| 20260506114538 | 14 | 29 | 9.7 | 24.1 | 0.00 | 0.00 | 0.00 | 46 | 1009.3 |
| 20260506113046 | 14 | 24 | 8.0 | 19.3 | 0.00 | 0.00 | 0.00 | 45 | 1009.4 |
| 20260506111540 | 13 | 360 | 9.7 | 20.9 | 0.00 | 0.00 | 0.00 | 45 | 1009.3 |
| 20260506110045 | 13 | 39 | 8.0 | 22.5 | 0.00 | 0.00 | 0.00 | 46 | 1009.4 |
| 20260506104547 | 13 | 29 | 8.0 | 20.9 | 0.00 | 0.00 | 0.00 | 47 | 1009.5 |
| 20260506103047 | 13 | 23 | 8.0 | 22.5 | 0.00 | 0.00 | 0.00 | 46 | 1009.4 |
| 20260506101549 | 13 | 14 | 8.0 | 20.9 | 0.00 | 0.00 | 0.00 | 47 | 1009.5 |
| 20260506100056 | 12 | 23 | 9.7 | 19.3 | 0.00 | 0.00 | 0.00 | 50 | 1009.6 |
| 20260506094540 | 12 | 14 | 4.8 | 22.5 | 0.00 | 0.00 | 0.00 | 52 | 1009.6 |